Location: Recife
(8.0585°S, 34.8848°W)
Time: 13:18:07
(UTC-03:00)

Tiros 1 despin weight - Pass Details

Date: 18 April 2026
Orbit: 555 x 591 km, 48.2° (Epoch: 14 May)

Event Time Altitude Azimuth Distance (km) Brightness Sun altitude
Rises 23:37:23 0° 330° (NNW) 2,801 - -84.5°
Reaches altitude 10° 23:39:43 10° 336° (NNW) 1,906 - -84.0°
Maximum altitude 23:43:57 50° 51° (NE) 751 - -83.1°
Drops below altitude 10° 23:48:12 10° 127° (SE) 1,912 - -82.1°
Sets 23:50:32 0° 132° (SE) 2,812 - -81.6°
